Retour au catalogue

TITAN 3C TRANSTAGE DEB

LostMEO
NORAD 43449·DEBRIS·🇺🇸 United States

Lancé Feb 9, 1969 depuis Cape Canaveral Space Force Station

Loading…

Prochains Passages (prochaines 24 heures)

TLE

PériméSource: Space-Track

Époque: Aug 4, 2026, 07:44 UTC

1 43449U 69013J   26216.32290084 -.00000164  00000-0  00000-0 0  9990
2 43449   1.5540  72.8105 0148464  69.8901 291.9254  0.96604663 29300

Suivez TITAN 3C TRANSTAGE DEB en temps réel avec AllMySat

Download on the App Store